Skip Page Navigation
NASA JPL Caltech
NASA Logo - Jet Propulsion Laboratory + View the NASA Portal
+ Center for Near-Earth Object Studies
JPL Home Earth Solar System Stars & Galaxies Technology
JPL Solar System Dynamics
BODIES ORBITS EPHEMERIDES TOOLS PHYSICAL DATA DISCOVERY FAQ SITE MAP
JPL Small-Body Database Browser
Search: [ help ]  
(2014 HO199)
Classification: Amor [NEO]          SPK-ID: 3710162
Ephemeris | Orbit Diagram | Orbital Elements | Mission Design | Physical Parameters | Close-Approach Data ]

[ show orbit diagram ]
Orbital Elements at Epoch 2456777.5 (2014-Apr-30.0) TDB
Reference: JPL 3 (heliocentric ecliptic J2000)
 Element Value Uncertainty (1-sigma)   Units 
e .2851658548785604 0.083535  
a 1.425515747405524 0.16619 au
q 1.019007330653778 0.015687 au
i 16.37259518804717 3.2231 deg
node 225.6461333002952 0.31612 deg
peri 57.16066607323349 2.1972 deg
M 322.4542814453808 7.9748 deg
tp 2456842.335725560562
(2014-Jul-03.83572556)
2.4522 TDB
period 621.6650553071044
1.70
108.72
0.2977
d
yr
n .5790899728506679 0.10127 deg/d
Q 1.832024164157271 0.21359 au
  Orbit Determination Parameters
   # obs. used (total)      8  
   data-arc span      4 days  
   first obs. used      2014-04-28  
   last obs. used      2014-05-02  
   planetary ephem.      DE431  
   SB-pert. ephem.      SB431-N16  
   condition code      9  
   norm. resid. RMS      .43527  
   source      ORB  
   producer      Otto Matic  
   solution date      2017-Apr-06 08:40:42  

Additional Information
 Earth MOID = .0998148 au 
 Jupiter MOID = 3.32812 au 
 T_jup = 4.613 
[ show covariance matrix ]

Ephemeris | Orbit Diagram | Orbital Elements | Mission Design | Physical Parameters | Close-Approach Data ]

Physical Parameter Table
Parameter Symbol Value Units Sigma Reference Notes
absolute magnitude H 26.0   n/a MPO328235  

[ show close-approach data ]
Ephemeris | Orbit Diagram | Orbital Elements | Mission Design | Physical Parameters | Close-Approach Data ]
ABOUT SSD CREDITS/AWARDS PRIVACY/COPYRIGHT GLOSSARY LINKS
FirstGov 2020-Oct-23 02:54 UT
(server date/time)  
NASA Home Page
Site Manager:   Ryan S. Park
Webmaster  Alan B. Chamberlin